Weather Roundup
Issued by NWS

Home | Current Version | Previous Version | Text Only | Print | Product List | Glossary On
Versions: 1 2 3 4 5 6 7 8 9 10 11 12 13 14 15 16 17 18 19 20 21 22 23 24 25 26 27 28 29 30 31 32 33 34 35 36 37 38 39 40 41 42 43 44 45 46 47 48 49 50
000
NZUS93 KARX 211010
HRRWXR

CURRENT HOURLY OBSERVATIONS ACROSS
MUCH OF THE UPPER MISSISSIPPI VALLEY
NATIONAL WEATHER SERVICE LA CROSSE WI
500 AM CDT MON APR 21 2014


...SOUTHEAST MINNESOTA...


CITY           SKY/WX    TMP DP  RH WIND       PRES   REMARKS
ROCHESTER      CLOUDY    57  52  83 E3        29.92F
ROCHESTER/MAYO CLOUDY    60  50  70 E3        29.91R
WINONA           N/A    N/A N/A N/A MISG        N/A
AUSTIN         CLOUDY    57  55  94 S3        29.92S
ALBERT LEA     CLOUDY    57  55  94 S6        29.91F
DODGE CENTER   CLOUDY    59  55  88 S7        29.92S
PRESTON        LGT RAIN  57  55  92 SW8       29.93F
OWATONNA       CLOUDY    61  55  82 N10       29.94R
FARIBAULT      TSTM      57  54  88 NE6       29.94S
$$

...ELSEWHERE IN MINNESOTA...


CITY           SKY/WX    TMP DP  RH WIND       PRES   REMARKS
MINNEAPOLIS    LGT RAIN  58  57  97 S7        29.90R FOG
INTNL FALLS    MOCLDY    48  33  56 SW6       29.81F
DULUTH         MOCLDY    44  28  53 SW3       29.89R
RED WING       RAIN      54  54 100 CALM      29.91F
REDWOOD FALLS  CLOUDY    54  52  93 N3        29.90R
MANKATO        CLOUDY    57  54  88 SE5       29.91R
WORTHINGTON    MOCLDY    55  46  71 S7        29.91S
FAIRMONT       CLOUDY    61  50  67 S20       29.91F
$$

...SOUTHWEST WISCONSIN...


CITY           SKY/WX    TMP DP  RH WIND       PRES   REMARKS
LA CROSSE      CLOUDY    56  53  90 VRB5      29.91S
PRAIRIE DU CHI FOG       54  53  96 CALM      29.92F VSB 1
BOSCOBEL       FOG       53  52  96 W3        29.92F VSB 1/4
LONE ROCK      CLOUDY    53  52  96 E5        29.92F FOG
PLATTEVILLE    CLOUDY    58  51  77 CALM      29.93F
FORT MC COY    FOG       52  52  99 NE3       29.92S VSB 1
CAMP DOUGLAS   CLOUDY    52  52 100 NE1       29.91F FOG
VIROQUA        CLOUDY    55  55 100 NW3       29.90F
WIS DELLS      DRIZZLE   54  51  92 E5        29.93F
$$

...ELSEWHERE IN WISCONSIN...


CITY           SKY/WX    TMP DP  RH WIND       PRES   REMARKS
MILWAUKEE      CLOUDY    62  51  67 W5        29.95F
MADISON        CLOUDY    57  52  83 S7        29.94S
GREEN BAY      CLOUDY    48  47  96 W5        29.93S FOG
EAU CLAIRE     CLOUDY    51  51 100 CALM      29.91S FOG
BLACK RVR FLS  FOG       50  50 100 CALM      29.91F VSB<1/4
MEDFORD        CLOUDY    51  51 100 E3        29.93S FOG
WAUSAU         FOG       50  49  96 CALM      29.92F VSB 1/4
WIS RAPIDS     CLOUDY    52  51  97 CALM      29.95S FOG
MARSHFIELD     FOG       51  49  92 E3        29.92F VSB 1/4
RICE LAKE      FOG       45  44  96 CALM      29.92S VSB<1/4
$$

...NORTHEAST IOWA...


CITY           SKY/WX    TMP DP  RH WIND       PRES   REMARKS
WATERLOO       MOCLDY    56  55  97 MISG      29.93F
DUBUQUE        CLOUDY    57  48  72 SE3       29.93F
DECORAH        FOG       55  55 100 CALM      29.93S VSB 1/2
MASON CITY     CLOUDY    56  55  97 CALM      29.95R
CHARLES CITY   CLOUDY    55  54  94 NE5       29.95R
OELWEIN        CLOUDY   N/A N/A N/A SW6       29.93S
$$

...ELSEWHERE IN IOWA...


CITY           SKY/WX    TMP DP  RH WIND       PRES   REMARKS
DES MOINES     CLOUDY    63  54  72 S3        29.95S
IOWA CITY      MOCLDY    56  50  80 S3        29.95S
FORT DODGE     CLOUDY    57  55  94 SW3       29.94F
MARSHALLTOWN   CLOUDY    55  52  89 NW3       29.93F
CEDAR RAPIDS   MOCLDY    60  49  66 CALM      29.92F
$$

...NORTHERN ILLINOIS...


CITY           SKY/WX    TMP DP  RH WIND       PRES   REMARKS
CHICAGO-OHARE  CLOUDY    61  40  45 SW7       29.97F
DUPAGE         CLOUDY    55  44  66 S5        29.97F
CHICAGO-MIDWAY MOCLDY    61  43  51 SW6       29.98F
MOLINE         MOCLDY    58  44  60 E3        29.94F
ROCKFORD       CLOUDY    59  44  57 S6        29.97F
STERLING       PTCLDY    52  45  76 CALM      29.95F
PEORIA         CLOUDY    60  44  55 S3        29.98F
$$

NOTE: "FAIR" INDICATES FEW OR NO CLOUDS BELOW 12,000 FEET WITH NO
SIGNIFICANT WEATHER AND/OR OBSTRUCTIONS TO VISIBILITY. WIND
SPEEDS ARE IN MILES-PER-HOUR.



USA.gov is the U.S. government's official web portal to all federal, state and local government web resources and services.